AAL2292 KPDX-KDFW

Flight info

Callsign AAL2292
Flight time 3h 3m
Altitude 37000
Route WHAMY5 IMB DCT KU75M DCT KD51U DCT PNH DCT MDANO VKTRY2
Aircraft B752/M-SDE3FGHIM3RWXY/LB1

Departure

Time 2026-05-04 04:12
Airport Portland International Airport (KPDX)

Arrival

Time 2026-05-04 07:16
Airport Dallas Fort Worth International Airport (KDFW)
Time Latitude Longitude Altitude Speed Heading
2026-05-04 03:47 45.59060 -122.59941 44 ft 0 kts 193°
2026-05-04 04:00 45.59071 -122.59938 44 ft 2 kts 193°
2026-05-04 04:00 45.59085 -122.59933 44 ft 2 kts 193°
2026-05-04 04:00 45.59100 -122.59927 44 ft 2 kts 193°
2026-05-04 04:00 45.59114 -122.59923 44 ft 2 kts 193°
2026-05-04 04:01 45.59129 -122.59917 44 ft 2 kts 200°
2026-05-04 04:01 45.59142 -122.59908 44 ft 2 kts 209°
2026-05-04 04:01 45.59155 -122.59897 44 ft 2 kts 212°
2026-05-04 04:01 45.59168 -122.59885 44 ft 2 kts 211°
2026-05-04 04:02 45.59181 -122.59874 44 ft 2 kts 211°
2026-05-04 04:02 45.59193 -122.59862 44 ft 2 kts 211°
2026-05-04 04:02 45.59199 -122.59857 44 ft 0 kts 211°
2026-05-04 04:04 45.59188 -122.59867 44 ft 3 kts 211°
2026-05-04 04:05 45.59163 -122.59890 44 ft 7 kts 212°
2026-05-04 04:05 45.59133 -122.59952 44 ft 8 kts 274°
2026-05-04 04:05 45.59132 -122.60044 44 ft 8 kts 245°
2026-05-04 04:05 45.59085 -122.60107 43 ft 10 kts 210°
2026-05-04 04:06 45.59013 -122.60162 43 ft 11 kts 208°
2026-05-04 04:06 45.58955 -122.60207 43 ft 7 kts 208°
2026-05-04 04:06 45.58902 -122.60222 43 ft 8 kts 163°
2026-05-04 04:06 45.58863 -122.60153 43 ft 10 kts 119°
2026-05-04 04:07 45.58828 -122.60064 42 ft 9 kts 118°
2026-05-04 04:07 45.58803 -122.59999 42 ft 5 kts 119°
2026-05-04 04:07 45.58771 -122.59918 42 ft 15 kts 118°
2026-05-04 04:07 45.58700 -122.59734 42 ft 25 kts 118°
2026-05-04 04:08 45.58615 -122.59516 42 ft 23 kts 118°
2026-05-04 04:08 45.58541 -122.59328 42 ft 20 kts 118°
2026-05-04 04:08 45.58480 -122.59172 42 ft 15 kts 119°
2026-05-04 04:08 45.58430 -122.59045 42 ft 14 kts 118°
2026-05-04 04:09 45.58374 -122.58902 41 ft 18 kts 119°
2026-05-04 04:09 45.58308 -122.58732 41 ft 21 kts 118°
2026-05-04 04:09 45.58243 -122.58561 41 ft 14 kts 118°
2026-05-04 04:09 45.58201 -122.58456 41 ft 10 kts 119°
2026-05-04 04:10 45.58172 -122.58385 41 ft 6 kts 129°
2026-05-04 04:10 45.58145 -122.58353 41 ft 4 kts 160°
2026-05-04 04:10 45.58089 -122.58388 41 ft 11 kts 227°
2026-05-04 04:10 45.58083 -122.58472 40 ft 6 kts 299°
2026-05-04 04:11 45.58086 -122.58481 40 ft 5 kts 298°
2026-05-04 04:11 45.58202 -122.58778 41 ft 67 kts 299°
2026-05-04 04:11 45.58541 -122.59650 42 ft 131 kts 298°
2026-05-04 04:11 45.59072 -122.61013 83 ft 181 kts 298°
2026-05-04 04:12 45.59736 -122.62650 549 ft 200 kts 303°
2026-05-04 04:12 45.60510 -122.64408 1205 ft 215 kts 304°
2026-05-04 04:12 45.61293 -122.66225 1809 ft 222 kts 305°
2026-05-04 04:12 45.62099 -122.68143 2455 ft 227 kts 304°
2026-05-04 04:13 45.62916 -122.70128 2904 ft 244 kts 303°
2026-05-04 04:13 45.63795 -122.72275 3361 ft 260 kts 303°
2026-05-04 04:13 45.64735 -122.74585 3964 ft 270 kts 302°
2026-05-04 04:13 45.65665 -122.76882 4779 ft 270 kts 302°
2026-05-04 04:14 45.66587 -122.79205 5507 ft 274 kts 296°
2026-05-04 04:14 45.67009 -122.81886 6216 ft 282 kts 268°
2026-05-04 04:14 45.66618 -122.84625 6932 ft 286 kts 255°
2026-05-04 04:14 45.66063 -122.87357 7635 ft 290 kts 253°
2026-05-04 04:15 45.65131 -122.89899 8335 ft 294 kts 228°
2026-05-04 04:15 45.63492 -122.91620 9001 ft 297 kts 200°
2026-05-04 04:15 45.61480 -122.92118 9707 ft 298 kts 174°
2026-05-04 04:15 45.59444 -122.91484 10291 ft 303 kts 163°
2026-05-04 04:16 45.57362 -122.90616 10579 ft 320 kts 162°
2026-05-04 04:16 45.55267 -122.89260 10769 ft 338 kts 144°
2026-05-04 04:16 45.53482 -122.86974 10966 ft 355 kts 127°
2026-05-04 04:16 45.52180 -122.83928 11116 ft 371 kts 111°
2026-05-04 04:17 45.51244 -122.80428 11603 ft 377 kts 110°
2026-05-04 04:17 45.50251 -122.77012 12222 ft 379 kts 111°
2026-05-04 04:17 45.49210 -122.73518 12806 ft 383 kts 112°
2026-05-04 04:17 45.48151 -122.70034 13397 ft 385 kts 112°
2026-05-04 04:18 45.47077 -122.66543 13980 ft 388 kts 112°
2026-05-04 04:18 45.45987 -122.63023 14550 ft 391 kts 112°
2026-05-04 04:18 45.44882 -122.59467 15127 ft 393 kts 112°
2026-05-04 04:18 45.43771 -122.55903 15694 ft 396 kts 112°
2026-05-04 04:19 45.42656 -122.52335 16230 ft 399 kts 112°
2026-05-04 04:19 45.41524 -122.48723 16773 ft 401 kts 112°
2026-05-04 04:19 45.40388 -122.45100 17322 ft 403 kts 112°
2026-05-04 04:19 45.39244 -122.41459 17852 ft 405 kts 112°
2026-05-04 04:20 45.38094 -122.37803 18327 ft 409 kts 112°
2026-05-04 04:20 45.36921 -122.34080 18862 ft 412 kts 112°
2026-05-04 04:20 45.35752 -122.30376 19361 ft 414 kts 112°
2026-05-04 04:20 45.34570 -122.26637 19838 ft 417 kts 112°
2026-05-04 04:21 45.33385 -122.22896 20348 ft 418 kts 112°
2026-05-04 04:21 45.32182 -122.19096 20809 ft 421 kts 112°
2026-05-04 04:21 45.30978 -122.15304 21301 ft 422 kts 112°
2026-05-04 04:21 45.29782 -122.11541 21729 ft 425 kts 112°
2026-05-04 04:22 45.28555 -122.07692 22239 ft 426 kts 112°
2026-05-04 04:22 45.27336 -122.03865 22664 ft 429 kts 111°
2026-05-04 04:22 45.26094 -121.99980 23138 ft 430 kts 111°
2026-05-04 04:22 45.24893 -121.96072 23543 ft 431 kts 108°
2026-05-04 04:23 45.23897 -121.92074 23886 ft 434 kts 107°
2026-05-04 04:23 45.22873 -121.88001 24313 ft 436 kts 107°
2026-05-04 04:23 45.21849 -121.83952 24653 ft 439 kts 107°
2026-05-04 04:23 45.20808 -121.79864 24996 ft 442 kts 107°
2026-05-04 04:24 45.19753 -121.75743 25420 ft 443 kts 107°
2026-05-04 04:24 45.18703 -121.71652 25725 ft 446 kts 107°
2026-05-04 04:24 45.17630 -121.67483 26053 ft 449 kts 107°
2026-05-04 04:24 45.16565 -121.63358 26407 ft 450 kts 107°
2026-05-04 04:25 45.15493 -121.59210 26744 ft 452 kts 107°
2026-05-04 04:25 45.14408 -121.55026 27046 ft 454 kts 107°
2026-05-04 04:25 45.13317 -121.50819 27339 ft 456 kts 107°
2026-05-04 04:25 45.12210 -121.46562 27634 ft 459 kts 107°
2026-05-04 04:26 45.11112 -121.42347 27934 ft 461 kts 107°
2026-05-04 04:26 45.10000 -121.38088 28286 ft 461 kts 107°
2026-05-04 04:26 45.08892 -121.33847 28541 ft 464 kts 108°
2026-05-04 04:26 45.07758 -121.29520 28876 ft 465 kts 108°
2026-05-04 04:27 45.06626 -121.25207 29094 ft 468 kts 108°
2026-05-04 04:27 45.05502 -121.20931 29334 ft 471 kts 108°
2026-05-04 04:27 45.04359 -121.16595 29613 ft 472 kts 108°
2026-05-04 04:27 45.03207 -121.12226 29829 ft 475 kts 108°
2026-05-04 04:28 45.02055 -121.07871 30205 ft 474 kts 108°
2026-05-04 04:28 45.00905 -121.03531 30615 ft 472 kts 108°
2026-05-04 04:28 44.99754 -120.99195 31057 ft 469 kts 108°
2026-05-04 04:28 44.98624 -120.94943 31396 ft 468 kts 107°
2026-05-04 04:29 44.97481 -120.90649 31731 ft 467 kts 108°
2026-05-04 04:29 44.96340 -120.86372 32020 ft 467 kts 107°
2026-05-04 04:29 44.95193 -120.82082 32313 ft 466 kts 107°
2026-05-04 04:29 44.94050 -120.77812 32602 ft 465 kts 107°
2026-05-04 04:30 44.92902 -120.73532 32855 ft 465 kts 107°
2026-05-04 04:30 44.91756 -120.69264 33012 ft 467 kts 107°
2026-05-04 04:30 44.90617 -120.65033 33347 ft 465 kts 107°
2026-05-04 04:30 44.89465 -120.60764 33594 ft 464 kts 107°
2026-05-04 04:31 44.88314 -120.56500 33816 ft 464 kts 107°
2026-05-04 04:31 44.87930 -120.55079 33935 ft 462 kts 107°
2026-05-04 04:31 44.86037 -120.48093 34319 ft 461 kts 107°
2026-05-04 04:31 44.84888 -120.43861 34548 ft 461 kts 107°
2026-05-04 04:32 44.83737 -120.39629 34709 ft 460 kts 107°
2026-05-04 04:32 44.82596 -120.35442 34862 ft 460 kts 107°
2026-05-04 04:32 44.81458 -120.31273 34980 ft 461 kts 108°
2026-05-04 04:32 44.80304 -120.27053 35138 ft 460 kts 108°
2026-05-04 04:33 44.79162 -120.22883 35276 ft 460 kts 108°
2026-05-04 04:33 44.78020 -120.18721 35406 ft 460 kts 108°
2026-05-04 04:33 44.76870 -120.14536 35563 ft 459 kts 108°
2026-05-04 04:33 44.75715 -120.10344 35697 ft 459 kts 108°
2026-05-04 04:34 44.73410 -120.01990 35955 ft 458 kts 108°
2026-05-04 04:34 44.71881 -119.96465 36080 ft 458 kts 108°
2026-05-04 04:35 44.69960 -119.89551 36294 ft 457 kts 108°
2026-05-04 04:35 44.68796 -119.85365 36332 ft 459 kts 108°
2026-05-04 04:35 44.66482 -119.77067 36577 ft 458 kts 108°
2026-05-04 04:36 44.63986 -119.68801 36753 ft 461 kts 112°
2026-05-04 04:36 44.62633 -119.64773 36818 ft 461 kts 111°
2026-05-04 04:37 44.57771 -119.50412 36964 ft 460 kts 112°
2026-05-04 04:37 44.57311 -119.49062 36962 ft 459 kts 112°
2026-05-04 04:38 44.50388 -119.28844 37007 ft 459 kts 113°
2026-05-04 04:39 44.47599 -119.20743 37018 ft 460 kts 113°
2026-05-04 04:39 44.44809 -119.12669 37020 ft 461 kts 113°
2026-05-04 04:40 44.42040 -119.04676 37031 ft 461 kts 113°
2026-05-04 04:40 44.39224 -118.96572 37035 ft 461 kts 113°
2026-05-04 04:41 44.36425 -118.88544 37052 ft 461 kts 113°
2026-05-04 04:41 44.33620 -118.80523 37058 ft 461 kts 113°
2026-05-04 04:42 44.30800 -118.72477 37072 ft 461 kts 113°
2026-05-04 04:42 44.27977 -118.64452 37083 ft 460 kts 113°
2026-05-04 04:43 44.25151 -118.56442 37095 ft 461 kts 113°
2026-05-04 04:43 44.22323 -118.48446 37096 ft 461 kts 113°
2026-05-04 04:44 44.19472 -118.40413 37068 ft 462 kts 113°
2026-05-04 04:44 44.16627 -118.32416 37040 ft 462 kts 114°
2026-05-04 04:45 44.13761 -118.24387 37019 ft 462 kts 114°
2026-05-04 04:47 44.03738 -117.96484 37005 ft 463 kts 114°
2026-05-04 04:47 44.00876 -117.88573 36988 ft 462 kts 114°
2026-05-04 04:48 43.97983 -117.80592 36961 ft 462 kts 114°
2026-05-04 04:49 43.90722 -117.60671 36930 ft 462 kts 114°
2026-05-04 04:49 43.87812 -117.52728 36930 ft 463 kts 114°
2026-05-04 04:50 43.84890 -117.44772 36925 ft 464 kts 114°
2026-05-04 04:50 43.82037 -117.37028 36923 ft 464 kts 114°
2026-05-04 04:51 43.79169 -117.29266 36923 ft 465 kts 115°
2026-05-04 04:51 43.76245 -117.21371 36914 ft 465 kts 115°
2026-05-04 04:52 43.73295 -117.13432 36891 ft 464 kts 115°
2026-05-04 04:52 43.70338 -117.05495 36884 ft 465 kts 115°
2026-05-04 04:53 43.67377 -116.97571 36862 ft 466 kts 115°
2026-05-04 04:53 43.64412 -116.89658 36880 ft 466 kts 115°
2026-05-04 04:54 43.61443 -116.81754 36874 ft 466 kts 115°
2026-05-04 04:54 43.58457 -116.73832 36859 ft 467 kts 115°
2026-05-04 04:55 43.55458 -116.65897 36859 ft 467 kts 115°
2026-05-04 04:55 43.52451 -116.57961 36861 ft 468 kts 115°
2026-05-04 04:56 43.49443 -116.50047 36861 ft 468 kts 115°
2026-05-04 04:56 43.46404 -116.42072 36859 ft 468 kts 115°
2026-05-04 04:57 43.43370 -116.34133 36867 ft 469 kts 116°
2026-05-04 04:57 43.40308 -116.26144 36893 ft 469 kts 116°
2026-05-04 04:58 43.37275 -116.18252 36902 ft 470 kts 116°
2026-05-04 04:58 43.34224 -116.10338 36907 ft 471 kts 116°
2026-05-04 04:59 43.31158 -116.02405 36906 ft 470 kts 116°
2026-05-04 04:59 43.28102 -115.94518 36904 ft 471 kts 116°
2026-05-04 05:00 43.25016 -115.86579 36897 ft 472 kts 116°
2026-05-04 05:01 43.20402 -115.74749 36901 ft 472 kts 116°
2026-05-04 05:01 43.17289 -115.66794 36912 ft 473 kts 116°
2026-05-04 05:02 43.14185 -115.58886 36914 ft 474 kts 117°
2026-05-04 05:02 43.11075 -115.50983 36920 ft 474 kts 117°
2026-05-04 05:03 43.07955 -115.43076 36906 ft 474 kts 117°
2026-05-04 05:04 43.01674 -115.27225 36866 ft 475 kts 117°
2026-05-04 05:04 42.98534 -115.19335 36855 ft 475 kts 118°
2026-05-04 05:06 42.85864 -114.87713 36886 ft 476 kts 118°
2026-05-04 05:07 42.82678 -114.79816 36884 ft 476 kts 118°
2026-05-04 05:07 42.79481 -114.71912 36891 ft 477 kts 118°
2026-05-04 05:09 42.65013 -114.36414 36896 ft 478 kts 118°
2026-05-04 05:10 42.61788 -114.28558 36929 ft 478 kts 119°
2026-05-04 05:10 42.58540 -114.20670 36948 ft 479 kts 119°
2026-05-04 05:11 42.55297 -114.12814 36956 ft 479 kts 119°
2026-05-04 05:11 42.52047 -114.04964 36962 ft 479 kts 119°
2026-05-04 05:12 42.48734 -113.97154 36961 ft 480 kts 120°
2026-05-04 05:12 42.45328 -113.89373 36946 ft 480 kts 120°
2026-05-04 05:13 42.41928 -113.81633 36961 ft 480 kts 120°
2026-05-04 05:13 42.38506 -113.73865 36967 ft 480 kts 121°
2026-05-04 05:14 42.35108 -113.66174 37007 ft 480 kts 121°
2026-05-04 05:14 42.31688 -113.58453 37020 ft 481 kts 121°
2026-05-04 05:15 42.28230 -113.50666 37029 ft 481 kts 121°
2026-05-04 05:15 42.24806 -113.42976 37033 ft 481 kts 121°
2026-05-04 05:16 42.21355 -113.35247 37023 ft 482 kts 121°
2026-05-04 05:16 42.17890 -113.27505 37017 ft 481 kts 122°
2026-05-04 05:17 42.14542 -113.20046 37005 ft 481 kts 122°
2026-05-04 05:17 42.11084 -113.12359 37000 ft 482 kts 122°
2026-05-04 05:18 42.07613 -113.04662 36983 ft 481 kts 122°
2026-05-04 05:18 42.04134 -112.96969 36990 ft 482 kts 122°
2026-05-04 05:19 42.00645 -112.89274 36982 ft 482 kts 122°
2026-05-04 05:19 41.97145 -112.81576 36988 ft 482 kts 122°
2026-05-04 05:20 41.93650 -112.73904 36980 ft 483 kts 122°
2026-05-04 05:20 41.90157 -112.66259 36978 ft 483 kts 122°
2026-05-04 05:21 41.86628 -112.58553 36994 ft 483 kts 122°
2026-05-04 05:21 41.83107 -112.50887 37002 ft 484 kts 122°
2026-05-04 05:22 41.79604 -112.43278 37011 ft 484 kts 122°
2026-05-04 05:22 41.76057 -112.35593 37004 ft 485 kts 122°
2026-05-04 05:23 41.72511 -112.27928 37002 ft 484 kts 123°
2026-05-04 05:23 41.68972 -112.20299 36977 ft 482 kts 123°
2026-05-04 05:24 41.65444 -112.12715 36957 ft 483 kts 123°
2026-05-04 05:24 41.61900 -112.05111 36937 ft 483 kts 123°
2026-05-04 05:25 41.58343 -111.97503 36934 ft 483 kts 123°
2026-05-04 05:25 41.54727 -111.89787 36966 ft 483 kts 123°
2026-05-04 05:26 41.51163 -111.82199 36996 ft 484 kts 123°
2026-05-04 05:26 41.47600 -111.74634 37040 ft 483 kts 123°
2026-05-04 05:28 41.33308 -111.44474 37132 ft 484 kts 124°
2026-05-04 05:29 41.29692 -111.36892 37118 ft 485 kts 124°
2026-05-04 05:29 41.26075 -111.29325 37114 ft 483 kts 124°
2026-05-04 05:31 41.11631 -110.99293 37110 ft 485 kts 124°
2026-05-04 05:32 41.07989 -110.91768 37143 ft 484 kts 125°
2026-05-04 05:33 41.02539 -110.80540 37183 ft 485 kts 125°
2026-05-04 05:33 40.98914 -110.73095 37194 ft 485 kts 124°
2026-05-04 05:34 40.95255 -110.65597 37197 ft 487 kts 125°
2026-05-04 05:34 40.91577 -110.58079 37189 ft 487 kts 125°
2026-05-04 05:35 40.87898 -110.50577 37201 ft 488 kts 125°
2026-05-04 05:35 40.84183 -110.43023 37215 ft 490 kts 125°
2026-05-04 05:36 40.80465 -110.35478 37216 ft 490 kts 125°
2026-05-04 05:36 40.76748 -110.27953 37211 ft 491 kts 126°
2026-05-04 05:37 40.72996 -110.20380 37191 ft 492 kts 126°
2026-05-04 05:37 40.69264 -110.12861 37200 ft 493 kts 126°
2026-05-04 05:38 40.63617 -110.01520 37158 ft 494 kts 126°
2026-05-04 05:38 40.59839 -109.93958 37141 ft 495 kts 127°
2026-05-04 05:39 40.54162 -109.82626 37158 ft 497 kts 127°
2026-05-04 05:40 40.48465 -109.71299 37113 ft 497 kts 127°
2026-05-04 05:40 40.44672 -109.63778 37065 ft 499 kts 127°
2026-05-04 05:41 40.40832 -109.56184 36989 ft 499 kts 127°
2026-05-04 05:41 40.37014 -109.48649 36983 ft 498 kts 127°
2026-05-04 05:42 40.33164 -109.41071 37009 ft 499 kts 127°
2026-05-04 05:42 40.29328 -109.33537 37054 ft 500 kts 128°
2026-05-04 05:43 40.25450 -109.25944 37067 ft 500 kts 128°
2026-05-04 05:45 40.09934 -108.95733 37087 ft 505 kts 128°
2026-05-04 05:47 39.94144 -108.65286 37132 ft 511 kts 129°
2026-05-04 05:47 39.90162 -108.57654 37147 ft 514 kts 129°
2026-05-04 05:48 39.86136 -108.49956 37159 ft 515 kts 128°
2026-05-04 05:48 39.82097 -108.42254 37171 ft 517 kts 128°
2026-05-04 05:49 39.78052 -108.34557 37161 ft 520 kts 129°
2026-05-04 05:49 39.73966 -108.26801 37130 ft 521 kts 129°
2026-05-04 05:51 39.57519 -107.95776 37098 ft 524 kts 130°
2026-05-04 05:52 39.53381 -107.88013 37078 ft 525 kts 129°
2026-05-04 05:52 39.49247 -107.80283 37052 ft 527 kts 129°
2026-05-04 05:54 39.32552 -107.49246 37255 ft 528 kts 130°
2026-05-04 05:55 39.28377 -107.41525 37276 ft 528 kts 129°
2026-05-04 05:55 39.24163 -107.33760 37314 ft 530 kts 130°
2026-05-04 05:56 39.19935 -107.25983 37300 ft 531 kts 130°
2026-05-04 05:56 39.15685 -107.18189 37298 ft 532 kts 130°
2026-05-04 05:57 39.11436 -107.10412 37299 ft 534 kts 130°
2026-05-04 05:57 39.07158 -107.02602 37289 ft 536 kts 130°
2026-05-04 05:58 39.02851 -106.94762 37283 ft 538 kts 130°
2026-05-04 05:58 38.98549 -106.86939 37277 ft 537 kts 131°
2026-05-04 05:59 38.94238 -106.79130 37324 ft 538 kts 131°
2026-05-04 05:59 38.92086 -106.75238 37486 ft 538 kts 130°
2026-05-04 05:59 38.89904 -106.71296 37262 ft 536 kts 130°
2026-05-04 06:00 38.85580 -106.63498 37303 ft 540 kts 131°
2026-05-04 06:00 38.81210 -106.55633 37299 ft 542 kts 130°
2026-05-04 06:01 38.76845 -106.47801 37287 ft 543 kts 130°
2026-05-04 06:03 38.59209 -106.16335 37223 ft 547 kts 131°
2026-05-04 06:05 38.37669 -105.82703 37269 ft 544 kts 138°
2026-05-04 06:06 38.32612 -105.75613 37279 ft 546 kts 138°
2026-05-04 06:06 38.27485 -105.68444 37284 ft 547 kts 138°
2026-05-04 06:07 38.22382 -105.61329 37269 ft 548 kts 138°
2026-05-04 06:07 38.17227 -105.54163 37247 ft 550 kts 138°
2026-05-04 06:08 38.12052 -105.46978 37236 ft 552 kts 139°
2026-05-04 06:08 38.06908 -105.39856 37262 ft 553 kts 138°
2026-05-04 06:09 38.01712 -105.32675 37245 ft 555 kts 139°
2026-05-04 06:11 37.80836 -105.03994 37189 ft 554 kts 139°
2026-05-04 06:13 37.59985 -104.75604 37158 ft 554 kts 139°
2026-05-04 06:14 37.41611 -104.50791 37127 ft 555 kts 138°
2026-05-04 06:15 37.36327 -104.43688 37086 ft 555 kts 139°
2026-05-04 06:15 37.31093 -104.36674 37082 ft 554 kts 139°
2026-05-04 06:16 37.25832 -104.29633 37026 ft 553 kts 140°
2026-05-04 06:16 37.20548 -104.22582 37047 ft 554 kts 140°
2026-05-04 06:17 37.15281 -104.15565 37083 ft 553 kts 140°
2026-05-04 06:17 37.10023 -104.08580 37089 ft 555 kts 140°
2026-05-04 06:18 37.04707 -104.01527 37086 ft 556 kts 140°
2026-05-04 06:20 36.83519 -103.73581 37096 ft 555 kts 140°
2026-05-04 06:21 36.70202 -103.56141 37087 ft 557 kts 139°
2026-05-04 06:22 36.64853 -103.49161 37075 ft 556 kts 140°
2026-05-04 06:25 36.27067 -103.00279 37007 ft 551 kts 140°
2026-05-04 06:26 36.21691 -102.93382 37002 ft 553 kts 139°
2026-05-04 06:26 36.16228 -102.86391 36997 ft 553 kts 140°
2026-05-04 06:27 36.02586 -102.68995 36982 ft 552 kts 139°
2026-05-04 06:28 35.97149 -102.62087 36945 ft 550 kts 140°
2026-05-04 06:28 35.91753 -102.55247 36955 ft 551 kts 139°
2026-05-04 06:29 35.86337 -102.48397 36966 ft 552 kts 139°
2026-05-04 06:29 35.80885 -102.41512 36968 ft 552 kts 139°
2026-05-04 06:30 35.75382 -102.34579 36976 ft 552 kts 140°
2026-05-04 06:30 35.69935 -102.27728 36952 ft 552 kts 140°
2026-05-04 06:31 35.64428 -102.20822 36945 ft 552 kts 140°
2026-05-04 06:31 35.58895 -102.13894 36932 ft 552 kts 140°
2026-05-04 06:33 35.36847 -101.86436 36960 ft 553 kts 140°
2026-05-04 06:34 35.31426 -101.79719 36970 ft 552 kts 140°
2026-05-04 06:34 35.25974 -101.72955 36967 ft 553 kts 137°
2026-05-04 06:36 35.11021 -101.39935 36988 ft 561 kts 118°
2026-05-04 06:37 35.07478 -101.31465 36960 ft 561 kts 118°
2026-05-04 06:37 35.03913 -101.22971 36959 ft 561 kts 118°
2026-05-04 06:38 35.00368 -101.14539 36963 ft 560 kts 118°
2026-05-04 06:40 34.86121 -100.80878 36946 ft 560 kts 118°
2026-05-04 06:40 34.82529 -100.72443 36945 ft 561 kts 118°
2026-05-04 06:41 34.78931 -100.64016 36944 ft 561 kts 118°
2026-05-04 06:41 34.75315 -100.55570 36944 ft 562 kts 118°
2026-05-04 06:42 34.71654 -100.47037 36933 ft 562 kts 118°
2026-05-04 06:44 34.57193 -100.13541 36921 ft 562 kts 119°
2026-05-04 06:44 34.53556 -100.05173 36923 ft 562 kts 119°
2026-05-04 06:45 34.49916 -99.96812 36921 ft 561 kts 119°
2026-05-04 06:45 34.46267 -99.88453 36923 ft 561 kts 119°
2026-05-04 06:46 34.42610 -99.80097 36922 ft 563 kts 119°
2026-05-04 06:46 34.38958 -99.71770 36923 ft 561 kts 119°
2026-05-04 06:48 34.23842 -99.38924 36936 ft 561 kts 121°
2026-05-04 06:50 34.08461 -99.06786 35661 ft 536 kts 122°
2026-05-04 06:51 34.06591 -99.02898 35003 ft 533 kts 122°
2026-05-04 06:51 34.04756 -98.99091 34300 ft 532 kts 122°
2026-05-04 06:51 34.02886 -98.95212 33562 ft 530 kts 122°
2026-05-04 06:51 34.01059 -98.91428 32838 ft 530 kts 121°
2026-05-04 06:52 33.99188 -98.87559 31847 ft 535 kts 122°
2026-05-04 06:52 33.97334 -98.83724 31084 ft 535 kts 122°
2026-05-04 06:52 33.95462 -98.79861 30183 ft 537 kts 121°
2026-05-04 06:52 33.93545 -98.75907 29365 ft 537 kts 121°
2026-05-04 06:53 33.91598 -98.71894 28778 ft 531 kts 121°
2026-05-04 06:53 33.89728 -98.68043 28336 ft 522 kts 121°
2026-05-04 06:53 33.87866 -98.64245 28141 ft 507 kts 122°
2026-05-04 06:53 33.86045 -98.60546 27439 ft 506 kts 121°
2026-05-04 06:54 33.84264 -98.56932 27028 ft 496 kts 122°
2026-05-04 06:54 33.82467 -98.53285 26481 ft 491 kts 122°
2026-05-04 06:54 33.80680 -98.49622 25955 ft 484 kts 121°
2026-05-04 06:54 33.78914 -98.46000 25387 ft 479 kts 121°
2026-05-04 06:55 33.77163 -98.42412 24899 ft 471 kts 121°
2026-05-04 06:55 33.75433 -98.38872 24337 ft 466 kts 121°
2026-05-04 06:55 33.73740 -98.35412 23825 ft 460 kts 121°
2026-05-04 06:55 33.72109 -98.32081 23312 ft 453 kts 121°
2026-05-04 06:56 33.70505 -98.28808 22739 ft 449 kts 122°
2026-05-04 06:57 33.59570 -98.06643 18827 ft 418 kts 122°
2026-05-04 06:58 33.58051 -98.03589 18237 ft 415 kts 122°
2026-05-04 06:58 33.56520 -98.00516 17684 ft 410 kts 122°
2026-05-04 06:58 33.55035 -97.97535 17164 ft 406 kts 122°
2026-05-04 06:58 33.53548 -97.94552 16666 ft 401 kts 122°
2026-05-04 06:59 33.52130 -97.91711 16554 ft 383 kts 123°
2026-05-04 06:59 33.50753 -97.88945 16346 ft 372 kts 123°
2026-05-04 06:59 33.49392 -97.86214 15825 ft 370 kts 123°
2026-05-04 06:59 33.48056 -97.83533 15403 ft 365 kts 123°
2026-05-04 07:01 33.39151 -97.65704 12681 ft 326 kts 123°
2026-05-04 07:01 33.37957 -97.63442 12376 ft 320 kts 128°
2026-05-04 07:02 33.36624 -97.61290 11892 ft 320 kts 129°
2026-05-04 07:02 33.35321 -97.59183 11563 ft 315 kts 129°
2026-05-04 07:02 33.34023 -97.57076 11102 ft 315 kts 129°
2026-05-04 07:02 33.32721 -97.54964 10723 ft 312 kts 129°
2026-05-04 07:03 33.31433 -97.52873 10297 ft 311 kts 128°
2026-05-04 07:03 33.30167 -97.50816 10197 ft 298 kts 129°
2026-05-04 07:03 33.28950 -97.48842 9806 ft 297 kts 129°
2026-05-04 07:03 33.27778 -97.46815 9412 ft 297 kts 117°
2026-05-04 07:04 33.27210 -97.44430 9011 ft 299 kts 95°
2026-05-04 07:04 33.27056 -97.41976 8685 ft 296 kts 95°
2026-05-04 07:04 33.26897 -97.39510 8326 ft 294 kts 95°
2026-05-04 07:04 33.26758 -97.37088 7953 ft 293 kts 94°
2026-05-04 07:05 33.26678 -97.34692 7628 ft 290 kts 93°
2026-05-04 07:05 33.26614 -97.32271 7254 ft 288 kts 93°
2026-05-04 07:05 33.26556 -97.29894 6897 ft 286 kts 93°
2026-05-04 07:05 33.26499 -97.27514 6518 ft 285 kts 93°
2026-05-04 07:06 33.26394 -97.22937 6085 ft 272 kts 93°
2026-05-04 07:06 33.26356 -97.20681 5752 ft 270 kts 93°
2026-05-04 07:06 33.26247 -97.18454 5395 ft 267 kts 102°
2026-05-04 07:07 33.25969 -97.16419 5099 ft 264 kts 103°
2026-05-04 07:08 33.20993 -97.05334 5013 ft 224 kts 185°
2026-05-04 07:09 33.19432 -97.05347 4985 ft 223 kts 183°
2026-05-04 07:09 33.17886 -97.05341 4988 ft 222 kts 183°
2026-05-04 07:09 33.16329 -97.05334 4989 ft 223 kts 184°
2026-05-04 07:09 33.14758 -97.05344 4986 ft 219 kts 184°
2026-05-04 07:10 33.13265 -97.05352 4754 ft 213 kts 184°
2026-05-04 07:10 33.11795 -97.05360 4491 ft 208 kts 184°
2026-05-04 07:12 33.03551 -97.05401 2937 ft 152 kts 185°
2026-05-04 07:12 33.02499 -97.05409 2740 ft 152 kts 184°
2026-05-04 07:12 33.01430 -97.05415 2535 ft 153 kts 184°
2026-05-04 07:12 33.00415 -97.05418 2305 ft 138 kts 183°
2026-05-04 07:13 32.99518 -97.05420 2107 ft 119 kts 184°
2026-05-04 07:13 32.98700 -97.05426 1962 ft 117 kts 182°
2026-05-04 07:13 32.97866 -97.05432 1845 ft 121 kts 183°
2026-05-04 07:14 32.94443 -97.05450 1194 ft 125 kts 181°
2026-05-04 07:14 32.93549 -97.05455 1028 ft 129 kts 181°
2026-05-04 07:15 32.92646 -97.05459 863 ft 131 kts 181°
2026-05-04 07:15 32.91724 -97.05464 682 ft 132 kts 180°
2026-05-04 07:15 32.90831 -97.05470 615 ft 119 kts 180°
2026-05-04 07:15 32.90207 -97.05473 617 ft 61 kts 180°
2026-05-04 07:16 32.89852 -97.05474 611 ft 33 kts 180°
2026-05-04 07:16 32.89672 -97.05448 608 ft 22 kts 165°
2026-05-04 07:16 32.89571 -97.05395 605 ft 10 kts 152°
2026-05-04 07:16 32.89508 -97.05353 604 ft 12 kts 150°
2026-05-04 07:17 32.89414 -97.05279 602 ft 17 kts 126°
2026-05-04 07:17 32.89402 -97.05147 601 ft 15 kts 90°
2026-05-04 07:17 32.89400 -97.05015 601 ft 17 kts 90°
2026-05-04 07:17 32.89417 -97.04898 600 ft 10 kts 32°
2026-05-04 07:18 32.89513 -97.04889 602 ft 15 kts
2026-05-04 07:18 32.89632 -97.04888 605 ft 19 kts
2026-05-04 07:18 32.89781 -97.04887 608 ft 23 kts
2026-05-04 07:18 32.89938 -97.04886 610 ft 21 kts 360°
2026-05-04 07:19 32.90071 -97.04887 611 ft 15 kts 360°
2026-05-04 07:19 32.90116 -97.04852 611 ft 6 kts 86°
2026-05-04 07:19 32.90119 -97.04786 609 ft 11 kts 75°
2026-05-04 07:19 32.90136 -97.04662 607 ft 19 kts 91°
2026-05-04 07:20 32.90134 -97.04513 604 ft 15 kts 90°
2026-05-04 07:20 32.90135 -97.04392 601 ft 13 kts 90°
2026-05-04 07:20 32.90133 -97.04300 600 ft 9 kts 91°
2026-05-04 07:20 32.90154 -97.04254 600 ft 5 kts 31°